Location: Gu�tanj
(46.5431°N, 14.9692°E)
Time: 20:05:37
(UTC+00:00)

Meteor 1-18 Rocket - Pass Details

Date: 03 March 2021
Orbit: 836 x 909 km, 81.2° (Epoch: 20 April)

Event Time Altitude Azimuth Distance (km) Brightness Sun altitude
Rises 17:47:50 0° 348° (NNW) 3,551 7.6 -10.9°
Reaches altitude 10° 17:50:19 10° 349° (N) 2,606 6.9 -11.3°
Maximum altitude 17:56:17 89° 76° (ENE) 915 4.4 -12.4°
Drops below altitude 10° 18:02:11 10° 170° (S) 2,572 6.6 -13.4°
Sets 18:04:37 0° 171° (S) 3,501 7.3 -13.8°
